�N����,����,�~����,�C��,���x,�C��,����,���ϕ���,�ő�u�ԕ���,�ő厞����,���˗�,�I�_���x,�n�����x
"21/07/01","01:00",3.2,21.9,93.3,1005.2,250.0,0.7,1.8,39.1,0.00,20.8,24.0
"21/07/01","02:00",5.2,21.6,93.9,1004.8,286.9,0.3,1.6,359.8,0.00,20.6,23.7
"21/07/01","03:00",2.8,21.8,94.4,1004.5,109.6,0.8,2.7,66.5,0.00,20.9,23.7
"21/07/01","04:00",5.2,21.6,94.8,1004.3,229.6,0.2,2.0,339.5,0.00,20.8,23.4
"21/07/01","05:00",1.2,21.6,95.0,1004.1,283.0,0.3,1.9,235.3,0.00,20.8,23.3
"21/07/01","06:00",0.2,21.7,95.4,1003.6,340.9,0.8,1.9,347.5,0.00,21.0,23.2
"21/07/01","07:00",0.0,21.9,95.5,1004.5,309.0,0.6,1.8,321.9,0.00,21.2,23.2
"21/07/01","08:00",0.0,23.3,95.6,1004.3,317.3,0.2,2.0,341.7,0.36,22.6,23.2
"21/07/01","09:00",0.0,23.1,94.5,1005.0,127.9,1.0,2.7,122.0,0.49,22.2,23.3
"21/07/01","10:00",0.0,23.9,89.0,1004.3,188.4,1.8,3.9,230.0,0.70,22.0,23.4
"21/07/01","11:00",0.0,24.0,84.0,1004.1,99.2,1.1,4.2,111.6,0.31,21.2,23.6
"21/07/01","12:00",0.0,23.8,81.8,1003.8,112.1,0.8,4.0,118.4,0.28,20.5,23.6
"21/07/01","13:00",0.0,23.7,82.6,1003.6,81.5,0.8,2.9,125.3,0.18,20.6,23.4
"21/07/01","14:00",0.0,23.8,81.6,1003.6,95.3,1.1,4.2,144.0,0.16,20.5,23.4
"21/07/01","15:00",0.0,24.1,81.6,1003.4,86.9,0.8,3.4,126.5,0.14,20.8,23.6
"21/07/01","16:00",0.0,25.6,75.5,1002.9,140.1,1.1,3.9,103.7,0.80,21.0,23.6
"21/07/01","17:00",0.0,24.7,78.4,1002.9,86.8,0.7,3.5,113.3,0.23,20.7,23.4
"21/07/01","18:00",0.0,24.8,77.6,1003.1,20.5,1.0,2.5,30.3,0.24,20.7,23.5
"21/07/01","19:00",0.0,24.4,79.7,1003.1,77.5,0.6,2.2,105.5,0.11,20.7,23.6
"21/07/01","20:00",0.0,22.6,86.0,1004.3,262.7,0.6,3.5,126.4,0.01,20.2,23.4
"21/07/01","21:00",0.0,22.4,89.0,1004.1,310.6,0.7,1.4,350.2,0.00,20.5,23.2
"21/07/01","22:00",0.0,22.0,90.9,1004.5,326.1,1.0,1.7,338.3,0.00,20.5,23.4
"21/07/01","23:00",0.0,21.7,92.3,1004.5,288.3,1.1,2.0,334.1,0.00,20.4,23.2
"21/07/01","24:00",0.0,21.9,93.1,1003.8,329.3,1.0,2.1,337.1,0.00,20.8,23.3
"21/07/02","01:00",0.0,21.9,93.6,1003.4,326.9,1.1,1.8,325.0,0.00,20.9,23.2
"21/07/02","02:00",0.0,22.0,94.0,1002.9,310.9,1.1,1.7,321.4,0.00,21.0,23.2
"21/07/02","03:00",0.0,22.1,94.2,1002.9,328.0,1.3,2.1,321.0,0.00,21.2,23.0
"21/07/02","04:00",0.0,22.3,94.3,1002.6,331.8,0.8,1.7,322.8,0.00,21.4,22.9
"21/07/02","05:00",0.0,22.4,94.4,1002.6,322.8,1.1,1.4,335.8,0.00,21.5,23.2
"21/07/02","06:00",0.4,22.5,94.6,1002.6,278.1,0.5,1.4,337.7,0.00,21.6,23.0
"21/07/02","07:00",0.0,23.2,94.7,1002.9,339.4,0.3,1.2,338.2,0.06,22.3,22.9
"21/07/02","08:00",0.0,24.9,93.9,1002.4,188.4,0.7,1.6,204.2,0.63,23.9,23.3
"21/07/02","09:00",0.0,26.1,91.6,1002.2,183.8,0.2,1.9,244.7,0.94,24.7,23.3
"21/07/02","10:00",0.0,27.2,82.5,1001.9,223.5,1.5,2.8,202.4,1.37,24.0,23.7
"21/07/02","11:00",0.0,26.8,82.0,1001.5,193.5,1.1,3.2,229.6,0.78,23.5,23.6
"21/07/02","12:00",0.0,27.2,81.9,1001.2,352.4,1.0,2.2,332.0,0.74,23.9,24.0
"21/07/02","13:00",0.0,26.9,82.9,1001.5,181.6,1.1,2.8,221.0,0.69,23.8,24.2
"21/07/02","14:00",0.0,27.1,86.2,1000.8,338.4,0.7,2.8,212.9,0.78,24.6,24.2
"21/07/02","15:00",4.6,26.3,89.2,1001.0,344.3,0.8,2.4,346.7,0.32,24.4,24.5
"21/07/02","16:00",0.6,25.5,90.9,1001.5,308.9,0.6,2.1,117.6,0.18,23.9,24.5
"21/07/02","17:00",0.2,24.9,91.5,1001.9,331.4,0.3,1.2,248.5,0.09,23.5,24.5
"21/07/02","18:00",1.4,24.5,92.3,1001.9,168.0,0.1,1.1,255.9,0.00,23.2,24.6
"21/07/02","19:00",0.0,24.6,92.8,1002.6,253.7,0.3,0.9,341.8,0.00,23.4,24.4
"21/07/02","20:00",0.0,24.5,93.6,1002.9,285.2,0.5,2.5,343.6,0.00,23.4,24.4
"21/07/02","21:00",0.0,24.4,94.1,1003.8,190.2,0.3,1.8,350.5,0.00,23.4,24.3
"21/07/02","22:00",0.0,24.6,94.5,1004.1,292.0,0.6,1.9,40.5,0.00,23.7,24.2
"21/07/02","23:00",0.2,24.7,94.8,1004.3,320.6,0.7,1.9,330.2,0.00,23.8,24.1
"21/07/02","24:00",2.8,24.6,95.1,1003.4,102.8,0.7,1.7,347.1,0.00,23.8,24.3
"21/07/03","01:00",34.4,24.0,95.4,1003.6,91.7,0.3,1.7,123.2,0.00,23.3,23.9
"21/07/03","02:00",65.8,23.8,95.7,1002.9,335.6,1.2,2.1,5.0,0.00,23.1,23.9
"21/07/03","03:00",17.6,23.7,96.0,1002.6,278.7,0.2,1.7,238.6,0.00,23.1,23.6
"21/07/03","04:00",8.4,23.6,96.1,1002.6,313.0,0.7,1.4,337.4,0.00,23.0,23.7
"21/07/03","05:00",0.0,23.2,96.3,1003.1,222.9,0.2,1.2,336.8,0.00,22.6,23.7
"21/07/03","06:00",0.0,23.5,96.4,1003.1,319.0,0.6,1.1,0.6,0.01,22.9,23.5
"21/07/03","07:00",0.0,24.9,96.4,1003.6,315.4,1.1,4.4,342.2,0.35,24.3,23.8
"21/07/03","08:00",0.0,25.4,94.9,1003.4,352.4,2.3,5.6,358.5,1.03,24.6,23.8
"21/07/03","09:00",0.0,28.2,84.5,1003.1,342.6,1.2,4.1,345.6,1.65,25.4,24.2
"21/07/03","10:00",0.0,28.0,76.9,1003.1,347.7,2.6,7.1,345.8,2.34,23.6,24.3
"21/07/03","11:00",0.0,29.3,71.5,1003.6,1.6,2.0,7.4,333.2,2.48,23.7,24.6
"21/07/03","12:00",0.0,27.4,76.8,1003.1,341.2,3.1,7.5,337.8,2.38,23.0,25.0
"21/07/03","13:00",0.0,29.6,70.4,1003.8,351.0,2.6,7.1,351.8,2.43,23.7,25.3
"21/07/03","14:00",0.0,29.5,70.8,1003.8,344.9,2.5,5.4,340.3,2.48,23.7,25.5
"21/07/03","15:00",0.0,31.0,65.2,1003.8,343.8,1.5,5.7,355.7,2.19,23.7,25.8
"21/07/03","16:00",0.0,30.7,67.1,1004.1,303.9,0.8,3.4,347.1,1.38,23.9,26.2
"21/07/03","17:00",0.0,29.5,70.0,1003.1,339.7,1.2,3.3,341.0,0.81,23.5,26.2
"21/07/03","18:00",0.0,28.9,72.6,1003.4,339.4,1.5,3.7,340.8,0.47,23.5,26.1
"21/07/03","19:00",0.0,27.9,76.3,1003.6,336.6,1.2,2.7,348.0,0.05,23.4,26.2
"21/07/03","20:00",0.0,26.5,82.1,1004.3,333.3,1.3,2.4,343.1,0.00,23.2,26.0
"21/07/03","21:00",0.0,25.7,84.8,1005.2,313.9,1.2,3.2,327.4,0.00,23.0,26.1
"21/07/03","22:00",0.0,25.4,86.1,1006.0,331.6,1.6,2.6,334.7,0.00,22.9,25.6
"21/07/03","23:00",0.2,24.6,88.9,1006.2,300.5,0.5,2.5,337.6,0.00,22.7,25.4
"21/07/03","24:00",0.2,24.4,90.8,1006.4,310.9,0.6,1.3,338.3,0.00,22.8,25.4
"21/07/04","01:00",0.0,24.4,92.0,1006.0,326.7,0.8,1.7,345.7,0.00,23.1,25.4
"21/07/04","02:00",0.0,24.3,92.6,1006.0,312.2,0.8,1.2,319.6,0.00,23.1,25.1
"21/07/04","03:00",0.0,24.1,93.2,1006.0,325.8,0.7,1.2,341.0,0.00,23.0,25.1
"21/07/04","04:00",0.2,24.2,93.7,1006.0,304.5,0.5,1.3,331.6,0.00,23.2,25.1
"21/07/04","05:00",0.0,24.1,94.1,1006.0,329.1,0.2,1.4,351.2,0.00,23.1,25.0
"21/07/04","06:00",0.0,24.3,94.4,1006.4,326.8,0.8,1.7,342.8,0.00,23.4,24.6
"21/07/04","07:00",0.0,24.8,94.6,1006.4,297.3,0.7,1.4,343.8,0.04,23.9,24.8
"21/07/04","08:00",0.2,25.7,94.6,1006.7,306.8,0.2,1.2,250.1,0.21,24.8,24.9
"21/07/04","09:00",0.4,25.8,94.5,1006.7,230.9,0.2,1.6,124.7,0.26,24.9,24.8
"21/07/04","10:00",0.6,26.0,94.5,1006.9,291.9,0.5,2.2,340.8,0.32,25.1,24.8
"21/07/04","11:00",0.2,27.5,93.0,1006.7,223.3,0.5,2.2,346.0,0.93,26.3,25.0
"21/07/04","12:00",0.0,29.5,82.8,1007.1,166.7,0.6,3.2,218.9,1.77,26.3,25.2
"21/07/04","13:00",0.0,29.8,74.5,1006.0,188.6,1.6,5.9,247.3,1.41,24.8,25.5
"21/07/04","14:00",0.0,31.0,69.0,1006.0,195.0,2.2,3.9,190.9,1.64,24.7,25.9
"21/07/04","15:00",0.0,31.3,65.6,1005.5,224.9,2.1,5.5,191.1,2.08,24.1,26.1
"21/07/04","16:00",0.0,30.3,70.8,1005.0,225.6,1.1,4.7,223.1,0.95,24.4,26.2
"21/07/04","17:00",0.0,30.3,71.2,1005.5,262.5,1.1,3.3,244.7,0.81,24.5,26.1
"21/07/04","18:00",0.0,29.7,74.4,1004.8,268.7,0.5,2.8,242.9,0.40,24.7,26.2
"21/07/04","19:00",0.0,28.8,76.9,1004.8,318.5,1.1,2.4,323.6,0.10,24.4,26.2
"21/07/04","20:00",0.0,28.1,77.9,1005.5,340.6,1.6,3.2,344.9,0.00,23.9,26.2
"21/07/04","21:00",0.0,28.1,77.2,1005.7,271.5,1.3,6.4,338.6,0.00,23.8,25.9
"21/07/04","22:00",0.0,27.4,79.9,1006.2,334.3,0.5,3.4,346.4,0.00,23.7,25.8
"21/07/04","23:00",0.0,27.1,81.8,1005.7,280.3,0.8,2.5,349.8,0.00,23.8,26.0
"21/07/04","24:00",0.0,26.3,86.1,1005.5,353.7,0.8,1.9,339.4,0.00,23.8,25.7
"21/07/05","01:00",0.0,25.8,88.9,1005.7,341.0,0.7,1.7,357.4,0.00,23.9,25.6
"21/07/05","02:00",0.0,26.4,89.8,1005.2,277.5,1.1,3.9,346.1,0.00,24.6,25.3
"21/07/05","03:00",0.0,26.5,89.1,1005.2,310.8,0.6,2.2,308.7,0.00,24.6,25.6
"21/07/05","04:00",0.0,26.8,87.4,1005.7,300.1,0.5,2.9,245.1,0.00,24.6,25.4
"21/07/05","05:00",0.0,26.5,86.9,1005.5,324.6,0.5,1.2,311.9,0.00,24.2,25.2
"21/07/05","06:00",0.0,26.5,86.5,1006.0,278.6,0.7,2.1,344.0,0.00,24.1,25.2
"21/07/05","07:00",0.0,26.4,87.2,1006.2,275.5,0.8,3.4,344.0,0.00,24.1,25.1
"21/07/05","08:00",0.0,27.6,85.7,1006.0,341.6,0.7,2.6,245.4,0.19,25.0,25.1
"21/07/05","09:00",0.0,29.9,76.4,1006.0,300.2,1.0,2.8,354.1,0.98,25.3,25.2
"21/07/05","10:00",0.0,30.0,70.3,1006.4,258.0,2.1,5.9,187.4,2.13,24.0,25.6
"21/07/05","11:00",0.0,30.0,71.7,1006.0,280.1,1.7,6.8,224.5,1.66,24.4,25.8
"21/07/05","12:00",0.0,30.3,69.7,1006.0,261.4,1.2,4.3,342.9,1.15,24.2,25.9
"21/07/05","13:00",0.0,29.5,71.7,1005.5,244.1,1.6,4.5,222.7,0.78,23.9,26.1
"21/07/05","14:00",4.0,28.2,85.6,1004.5,13.3,1.0,4.8,240.5,0.98,25.6,26.1
"21/07/05","15:00",0.0,29.6,79.0,1005.2,312.2,0.7,2.1,130.8,1.12,25.6,26.4
"21/07/05","16:00",0.0,28.8,78.6,1004.1,330.7,1.5,3.7,347.8,0.63,24.7,26.3
"21/07/05","17:00",0.2,28.0,83.5,1004.3,340.4,0.6,3.2,344.2,0.34,25.0,26.5
"21/07/05","18:00",0.0,27.5,85.9,1004.8,338.3,0.8,1.8,347.4,0.14,25.0,26.4
"21/07/05","19:00",0.0,26.6,88.3,1005.0,325.7,1.0,2.0,343.5,0.01,24.5,26.3
"21/07/05","20:00",0.0,25.9,89.8,1006.2,339.3,0.8,2.1,344.9,0.00,24.1,26.2
"21/07/05","21:00",0.0,25.1,91.3,1006.7,314.9,0.5,2.0,345.0,0.00,23.6,26.0
"21/07/05","22:00",0.0,25.0,92.2,1006.4,329.8,1.0,1.6,342.8,0.00,23.7,26.2
"21/07/05","23:00",0.0,24.7,92.8,1006.4,304.4,0.8,1.7,355.9,0.00,23.5,26.0
"21/07/05","24:00",0.0,24.8,93.2,1006.4,330.8,0.8,1.3,328.4,0.00,23.7,25.7
"21/07/06","01:00",0.0,24.6,93.5,1006.0,295.5,0.3,1.4,316.6,0.00,23.5,25.6
"21/07/06","02:00",0.0,24.4,93.8,1006.0,321.6,0.8,1.7,346.7,0.00,23.4,25.5
"21/07/06","03:00",0.0,24.6,93.9,1006.4,308.4,0.8,1.7,315.2,0.00,23.6,25.5
"21/07/06","04:00",0.0,24.0,94.2,1006.2,314.6,1.0,1.9,342.9,0.00,23.0,25.3
"21/07/06","05:00",0.0,23.8,94.6,1006.7,333.2,1.1,1.7,336.6,0.00,22.9,25.2
"21/07/06","06:00",0.0,24.1,94.7,1006.7,324.7,0.7,1.7,331.8,0.00,23.2,25.0
"21/07/06","07:00",0.0,24.8,94.7,1006.7,307.7,1.0,1.8,345.2,0.09,23.9,25.0
"21/07/06","08:00",0.0,26.7,94.0,1006.9,353.1,0.3,1.9,336.7,0.52,25.7,25.1
"21/07/06","09:00",0.0,28.2,89.4,1006.7,42.4,0.6,2.1,9.1,1.07,26.3,25.2
"21/07/06","10:00",0.0,29.9,76.3,1006.0,0.8,0.6,2.0,359.3,1.19,25.3,25.4
"21/07/06","11:00",0.0,30.8,72.3,1006.2,177.2,0.7,4.2,138.4,1.42,25.3,25.6
"21/07/06","12:00",0.0,30.0,72.4,1005.5,241.4,1.2,2.5,208.5,1.19,24.5,25.8
"21/07/06","13:00",0.0,32.1,66.9,1005.7,244.1,0.8,4.0,237.4,1.72,25.2,26.2
"21/07/06","14:00",0.0,31.0,66.3,1005.2,314.6,1.5,3.7,208.5,1.37,24.0,26.4
"21/07/06","15:00",0.0,31.7,64.3,1005.0,285.0,1.0,3.7,342.8,1.67,24.2,26.5
"21/07/06","16:00",0.0,30.6,67.3,1003.6,231.9,1.1,3.9,220.4,0.67,23.9,26.5
"21/07/06","17:00",0.0,30.3,64.4,1003.8,300.5,1.3,5.8,199.9,0.60,22.9,26.6
"21/07/06","18:00",0.0,29.7,65.2,1003.8,265.5,1.3,4.7,240.5,0.32,22.5,26.5
"21/07/06","19:00",0.0,28.8,69.6,1003.1,324.0,1.0,3.9,242.6,0.05,22.7,26.7
"21/07/06","20:00",0.0,27.1,77.6,1004.3,317.5,0.8,1.4,334.0,0.00,22.9,26.6
"21/07/06","21:00",0.0,26.2,82.6,1005.0,326.4,1.0,1.7,333.9,0.00,23.0,26.2
"21/07/06","22:00",0.0,25.9,84.1,1005.2,327.3,0.8,2.1,345.1,0.00,23.0,26.4
"21/07/06","23:00",0.0,26.1,84.6,1005.0,242.1,1.5,3.9,256.4,0.00,23.3,26.1
"21/07/06","24:00",0.0,27.7,76.3,1004.8,286.6,1.0,2.9,238.2,0.00,23.2,25.9
"21/07/07","01:00",0.2,26.4,80.6,1004.8,329.2,0.7,1.9,5.3,0.00,22.8,25.8
"21/07/07","02:00",0.0,25.0,88.0,1004.8,341.3,1.0,2.1,309.8,0.00,22.9,25.8
"21/07/07","03:00",0.0,26.0,85.5,1004.5,296.3,1.1,4.1,347.2,0.00,23.4,25.7
"21/07/07","04:00",0.0,26.5,81.3,1003.8,272.4,1.2,4.3,313.5,0.00,23.1,25.6
"21/07/07","05:00",0.0,26.1,82.9,1003.6,230.1,0.6,3.6,315.9,0.00,23.0,25.6
"21/07/07","06:00",0.0,25.4,86.6,1004.3,328.8,0.3,1.7,308.6,0.00,23.0,25.3
"21/07/07","07:00",1.8,25.0,89.8,1004.3,1.5,0.6,2.5,141.2,0.00,23.2,25.4
"21/07/07","08:00",5.2,24.9,91.5,1004.5,345.2,0.8,1.4,344.4,0.00,23.5,25.2
"21/07/07","09:00",3.0,25.3,92.5,1004.1,349.4,0.5,1.3,348.2,0.16,24.0,25.1
"21/07/07","10:00",5.8,24.6,93.4,1005.0,295.6,0.6,2.5,337.1,0.09,23.5,25.2
"21/07/07","11:00",5.0,25.1,93.8,1005.2,352.1,0.3,1.1,202.7,0.17,24.1,25.2
"21/07/07","12:00",1.2,25.2,93.9,1005.0,330.6,0.5,2.4,246.6,0.29,24.2,25.2
"21/07/07","13:00",1.2,25.4,93.9,1004.8,314.6,0.8,2.0,247.2,0.45,24.4,25.4
"21/07/07","14:00",1.2,24.7,93.4,1005.0,339.6,0.5,2.7,350.0,0.36,23.6,25.3
"21/07/07","15:00",6.0,24.0,93.4,1004.3,13.9,1.2,4.0,237.2,0.04,22.9,25.4
"21/07/07","16:00",4.2,23.8,93.6,1004.5,248.4,1.0,2.8,247.3,0.05,22.7,25.2
"21/07/07","17:00",8.0,23.6,93.9,1004.5,196.3,0.7,2.2,139.1,0.01,22.6,25.1
"21/07/07","18:00",3.2,23.6,94.2,1004.3,43.7,0.7,2.9,221.9,0.00,22.7,25.2
"21/07/07","19:00",7.8,23.4,94.7,1004.3,101.9,0.3,1.7,8.5,0.00,22.5,25.0
"21/07/07","20:00",6.2,23.2,94.9,1005.0,291.9,0.5,1.9,223.5,0.00,22.4,24.9
"21/07/07","21:00",5.0,23.2,95.0,1005.0,136.7,0.2,1.0,130.8,0.00,22.4,24.8
"21/07/07","22:00",0.2,23.2,95.3,1005.0,30.1,0.2,1.9,179.8,0.00,22.4,24.8
"21/07/07","23:00",0.0,23.2,95.5,1004.1,90.1,0.1,1.3,341.2,0.00,22.5,24.6
"21/07/07","24:00",0.2,23.2,95.7,1004.3,335.1,0.5,1.3,343.5,0.00,22.5,24.6
"21/07/08","01:00",0.8,23.2,95.8,1004.1,315.5,0.5,1.1,344.8,0.00,22.5,24.4
"21/07/08","02:00",1.2,23.2,96.0,1003.8,358.1,0.3,0.9,342.6,0.00,22.6,24.2
"21/07/08","03:00",1.0,23.2,96.1,1003.8,300.5,0.2,1.2,346.3,0.00,22.6,24.4
"21/07/08","04:00",2.4,23.3,96.2,1004.1,200.6,0.3,0.8,243.9,0.00,22.7,24.3
"21/07/08","05:00",1.4,23.3,96.3,1002.9,256.7,0.2,1.3,203.5,0.00,22.7,24.1
"21/07/08","06:00",1.6,23.4,96.4,1003.1,308.8,0.3,1.7,341.7,0.00,22.8,24.3
"21/07/08","07:00",0.0,23.5,96.4,1003.1,275.1,0.3,0.9,247.6,0.00,22.9,24.4
"21/07/08","08:00",0.2,23.7,96.5,1003.1,150.3,0.2,1.1,117.1,0.00,23.1,24.2
"21/07/08","09:00",5.6,24.0,96.5,1003.6,173.7,0.3,1.6,123.2,0.09,23.4,24.2
"21/07/08","10:00",1.0,24.0,96.5,1002.6,130.5,0.5,1.6,216.2,0.14,23.4,24.4
"21/07/08","11:00",0.8,24.3,96.6,1002.6,128.8,0.2,1.7,191.2,0.03,23.8,24.4
"21/07/08","12:00",0.2,24.9,96.6,1002.6,302.4,0.2,1.8,157.6,0.31,24.4,24.3
"21/07/08","13:00",0.2,25.2,96.7,1002.6,55.6,0.2,1.6,343.9,0.21,24.7,24.4
"21/07/08","14:00",0.6,25.2,96.5,1001.7,177.2,1.3,2.7,206.3,0.43,24.6,24.4
"21/07/08","15:00",0.2,26.0,95.3,1001.2,163.4,0.7,3.9,144.8,0.94,25.2,24.5
"21/07/08","16:00",0.4,25.6,95.5,1001.2,148.8,0.5,1.9,210.9,0.21,24.9,24.8
"21/07/08","17:00",2.4,25.3,95.5,1001.7,52.1,0.2,1.6,346.2,0.09,24.6,24.6
"21/07/08","18:00",0.0,25.2,95.6,1001.5,319.3,0.8,1.7,344.0,0.00,24.5,24.6
"21/07/08","19:00",0.8,25.0,95.6,1001.2,355.9,0.3,1.1,305.7,0.00,24.3,24.6
"21/07/08","20:00",0.0,24.6,95.8,1001.7,91.9,0.1,1.0,338.2,0.00,23.9,24.6
"21/07/08","21:00",0.0,24.4,96.0,1002.2,328.6,0.5,1.9,345.1,0.00,23.8,24.7
"21/07/08","22:00",0.0,24.4,96.0,1002.2,298.8,0.6,1.3,346.0,0.00,23.8,24.6
"21/07/08","23:00",0.0,24.4,96.2,1002.2,331.5,0.6,1.1,342.5,0.00,23.8,24.5
"21/07/08","24:00",2.8,24.3,96.3,1002.6,325.1,0.3,1.0,338.8,0.00,23.7,24.5
"21/07/09","01:00",1.0,24.3,96.4,1002.4,276.7,0.2,1.2,332.0,0.00,23.7,24.7
"21/07/09","02:00",0.0,24.3,96.5,1002.4,319.2,0.2,0.9,2.2,0.00,23.7,24.4
"21/07/09","03:00",0.0,24.3,96.5,1001.9,281.3,0.2,1.2,14.3,0.00,23.7,24.3
"21/07/09","04:00",0.0,24.3,96.6,1002.2,344.8,0.5,0.9,243.1,0.00,23.8,24.3
"21/07/09","05:00",0.0,24.4,96.7,1002.4,11.8,0.3,1.3,348.8,0.00,23.9,24.5
"21/07/09","06:00",0.2,24.4,96.8,1002.6,269.1,0.1,1.3,344.2,0.00,23.9,24.1
"21/07/09","07:00",0.0,25.3,96.7,1002.2,133.4,0.1,1.0,126.8,0.07,24.8,24.4
"21/07/09","08:00",0.2,25.5,96.6,1002.4,339.9,0.5,1.8,150.0,0.17,25.0,24.3
"21/07/09","09:00",0.0,26.1,96.6,1002.2,337.3,0.5,1.6,342.7,0.60,25.6,24.4
"21/07/09","10:00",0.0,27.5,96.1,1001.7,92.1,0.5,1.7,358.6,0.81,26.9,24.6
"21/07/09","11:00",0.0,27.6,93.2,1002.6,263.6,1.0,2.6,185.9,1.13,26.4,24.9
"21/07/09","12:00",0.0,28.8,86.2,1001.2,318.6,0.3,2.7,336.1,0.48,26.3,24.9
"21/07/09","13:00",1.4,27.2,85.6,1001.2,272.9,0.6,5.0,258.2,0.42,24.6,25.2
"21/07/09","14:00",1.4,26.8,90.1,1001.2,286.0,0.5,2.1,347.4,0.43,25.1,25.2
"21/07/09","15:00",0.0,27.8,87.9,1000.3,357.9,0.3,1.7,340.3,1.01,25.6,25.2
"21/07/09","16:00",0.0,28.1,83.6,1001.5,260.8,1.2,4.1,230.9,0.82,25.1,25.5
"21/07/09","17:00",0.0,27.8,81.1,1000.8,263.8,1.1,4.0,217.1,0.59,24.3,25.7
"21/07/09","18:00",0.0,26.7,83.5,1001.7,276.7,1.0,4.4,345.5,0.19,23.7,25.7
"21/07/09","19:00",0.0,26.5,83.6,1002.2,299.4,1.2,3.4,279.9,0.16,23.5,25.6
"21/07/09","20:00",0.0,25.9,85.4,1002.4,315.2,1.1,3.3,325.5,0.00,23.3,25.5
"21/07/09","21:00",0.0,25.9,85.5,1003.4,302.3,1.2,3.1,268.1,0.00,23.3,25.4
"21/07/09","22:00",0.0,25.7,86.4,1003.6,286.1,1.0,3.1,237.7,0.00,23.3,25.4
"21/07/09","23:00",0.0,24.8,88.5,1003.8,330.2,0.7,2.5,314.3,0.00,22.8,25.3
"21/07/09","24:00",0.0,24.8,90.9,1003.8,340.8,0.6,1.8,341.8,0.00,23.3,25.1
"21/07/10","01:00",0.0,24.6,92.2,1004.3,357.8,0.6,1.6,340.4,0.00,23.3,25.2
"21/07/10","02:00",0.0,24.3,93.1,1003.8,338.5,0.7,1.6,327.5,0.00,23.2,25.1
"21/07/10","03:00",0.0,24.3,93.7,1004.1,345.7,0.7,1.4,347.2,0.00,23.3,24.9
"21/07/10","04:00",1.6,24.2,94.3,1004.3,336.9,0.3,1.8,352.6,0.00,23.3,24.7
"21/07/10","05:00",0.0,23.4,94.9,1005.0,310.8,0.6,1.3,30.9,0.00,22.6,24.8
"21/07/10","06:00",0.0,24.0,95.2,1005.2,349.1,0.6,1.3,15.7,0.01,23.2,24.7
"21/07/10","07:00",0.0,24.7,95.2,1005.7,261.0,0.5,1.3,343.3,0.15,23.9,24.8
"21/07/10","08:00",0.0,25.8,95.1,1005.2,0.5,0.6,1.9,2.9,0.35,25.0,24.7
"21/07/10","09:00",0.0,25.8,93.9,1005.5,174.7,0.7,2.0,152.9,0.66,24.8,24.9
"21/07/10","10:00",0.0,28.0,91.8,1006.0,228.7,0.3,2.0,214.9,0.95,26.6,24.8
"21/07/10","11:00",0.0,29.5,80.3,1005.7,221.4,0.8,2.1,206.6,1.42,25.8,25.3
"21/07/10","12:00",0.0,30.6,71.8,1005.2,249.3,1.6,4.4,211.8,1.86,25.0,25.5
"21/07/10","13:00",0.0,30.9,68.6,1005.5,241.9,1.2,4.1,243.1,2.39,24.5,25.7
"21/07/10","14:00",0.0,31.5,68.0,1005.5,277.2,1.1,4.5,222.9,1.63,24.9,26.1
"21/07/10","15:00",0.0,31.0,67.2,1004.8,320.6,1.2,3.6,319.4,1.65,24.2,26.2
"21/07/10","16:00",0.0,30.9,68.4,1004.5,306.5,1.1,3.3,334.9,1.34,24.4,26.6
"21/07/10","17:00",0.0,30.4,69.2,1004.1,284.2,0.7,2.5,234.6,0.72,24.2,26.6
"21/07/10","18:00",0.2,30.0,72.3,1004.1,330.4,0.8,2.9,353.7,0.49,24.5,26.6
"21/07/10","19:00",0.0,28.5,76.7,1003.1,262.8,1.2,2.8,236.3,0.05,24.0,26.6
"21/07/10","20:00",0.0,27.3,81.0,1004.5,314.7,1.0,1.9,333.9,0.00,23.8,26.6
"21/07/10","21:00",0.0,26.5,84.6,1005.2,309.2,1.1,2.6,343.1,0.00,23.7,26.4
"21/07/10","22:00",0.0,25.7,84.7,1006.0,325.6,1.1,2.7,331.5,0.00,23.0,26.4
"21/07/10","23:00",0.0,25.6,85.7,1006.2,321.4,1.0,3.6,333.8,0.00,23.1,26.1
"21/07/10","24:00",2.6,24.8,88.2,1006.7,353.4,1.2,2.7,357.7,0.00,22.8,25.8
"21/07/11","01:00",0.2,24.0,91.5,1006.7,325.3,0.7,2.8,343.1,0.00,22.6,25.9
"21/07/11","02:00",0.0,23.6,92.9,1007.4,309.7,0.7,1.3,17.5,0.00,22.4,25.7
"21/07/11","03:00",0.0,23.4,93.8,1007.1,174.9,0.1,2.1,335.0,0.00,22.4,25.6
"21/07/11","04:00",0.0,23.3,94.3,1007.4,245.1,0.5,1.4,357.6,0.00,22.4,25.4
"21/07/11","05:00",0.2,23.1,94.8,1007.4,287.6,0.6,1.4,344.5,0.00,22.3,25.4
"21/07/11","06:00",0.0,23.2,95.1,1007.8,269.7,0.1,1.4,328.6,0.00,22.4,25.2
"21/07/11","07:00",0.0,23.8,95.3,1007.8,322.2,0.6,1.6,353.9,0.06,23.0,25.2
"21/07/11","08:00",0.0,25.4,95.0,1007.4,325.5,0.7,1.9,340.2,0.59,24.6,25.1
"21/07/11","09:00",0.0,26.1,89.5,1008.1,335.1,1.6,3.5,342.3,1.06,24.3,25.3
"21/07/11","10:00",0.0,29.1,72.4,1007.4,269.0,1.3,3.7,243.4,2.15,23.7,25.6
"21/07/11","11:00",0.0,30.9,64.2,1008.3,248.2,1.0,4.4,226.7,3.11,23.4,25.8
"21/07/11","12:00",0.0,31.7,63.3,1008.3,213.3,2.2,4.4,228.1,3.04,23.9,26.1
"21/07/11","13:00",0.0,32.8,59.8,1007.8,319.8,1.1,3.7,202.3,3.12,24.0,26.6
"21/07/11","14:00",0.0,33.1,56.5,1007.1,260.7,0.6,5.4,33.8,2.63,23.3,26.9
"21/07/11","15:00",0.0,31.6,59.9,1006.7,259.4,0.8,3.5,233.0,1.26,22.9,27.0
"21/07/11","16:00",0.0,25.9,70.8,1004.1,327.1,3.7,10.1,48.4,1.16,20.2,27.3
"21/07/11","17:00",0.0,25.0,78.6,1005.7,326.4,2.6,4.1,347.6,0.10,21.1,27.1
"21/07/11","18:00",0.0,24.5,85.0,1006.0,351.6,1.6,6.2,346.5,0.06,21.9,26.9
"21/07/11","19:00",0.0,25.1,81.7,1006.2,339.4,2.1,4.4,326.9,0.15,21.8,26.7
"21/07/11","20:00",0.0,24.4,86.2,1006.7,342.4,1.3,4.4,309.6,0.00,22.0,26.6
"21/07/11","21:00",0.0,24.2,88.6,1007.4,342.5,1.2,3.3,342.4,0.00,22.2,26.3
"21/07/11","22:00",0.0,23.9,89.9,1007.8,331.9,1.5,2.8,341.0,0.00,22.2,26.3
"21/07/11","23:00",0.0,23.4,90.9,1008.1,314.4,1.5,3.3,337.5,0.00,21.9,26.1
"21/07/11","24:00",0.0,22.9,91.7,1008.3,298.5,1.0,2.0,334.1,0.00,21.5,25.6
"21/07/12","01:00",0.0,22.7,92.5,1007.6,286.8,1.1,2.5,334.8,0.00,21.5,25.6
"21/07/12","02:00",0.0,22.3,93.1,1007.6,324.3,1.2,2.0,332.5,0.00,21.2,25.4
"21/07/12","03:00",0.0,21.9,93.7,1007.6,313.9,1.1,1.9,325.7,0.00,20.9,25.2
"21/07/12","04:00",0.0,21.9,94.2,1007.1,312.1,1.1,1.8,337.5,0.00,21.0,25.1
"21/07/12","05:00",0.0,21.9,94.6,1007.6,329.4,1.5,1.8,318.5,0.00,21.0,24.9
"21/07/12","06:00",0.0,22.3,94.9,1008.1,294.8,0.5,1.9,327.3,0.02,21.5,24.6
"21/07/12","07:00",0.0,23.9,95.0,1007.6,278.8,0.5,1.3,322.8,0.28,23.1,24.6
"21/07/12","08:00",0.0,24.9,93.7,1007.6,300.8,0.5,1.8,352.2,0.72,23.9,24.8
"21/07/12","09:00",0.0,28.1,85.4,1007.6,90.3,0.3,1.9,336.8,1.32,25.5,24.9
"21/07/12","10:00",0.0,29.1,74.7,1007.8,173.3,0.3,2.4,350.5,1.35,24.2,25.2
"21/07/12","11:00",0.0,29.5,71.9,1007.6,203.4,0.7,1.9,73.2,1.52,23.9,25.7
"21/07/12","12:00",0.0,29.2,74.1,1006.4,298.8,1.0,2.9,345.0,0.97,24.1,25.5
"21/07/12","13:00",0.6,26.7,79.5,1004.8,325.6,2.0,4.8,342.6,0.41,22.9,25.8
"21/07/12","14:00",0.8,25.5,86.1,1005.2,326.3,1.5,5.0,332.2,0.51,23.0,26.0
"21/07/12","15:00",0.0,27.1,80.9,1005.7,266.0,0.6,3.6,343.4,0.96,23.6,25.8
"21/07/12","16:00",0.0,26.3,80.5,1005.7,329.4,1.6,3.3,341.2,0.61,22.7,25.7
"21/07/12","17:00",0.0,26.9,75.2,1005.7,341.8,1.8,3.5,347.4,0.65,22.2,25.8
"21/07/12","18:00",0.0,27.4,73.5,1005.5,298.2,0.7,2.7,344.3,0.44,22.3,25.9
"21/07/12","19:00",0.0,25.9,79.5,1006.2,323.3,1.3,2.7,332.2,0.09,22.1,25.9
"21/07/12","20:00",0.0,24.1,83.4,1006.9,302.1,1.0,2.7,335.9,0.00,21.2,25.8
"21/07/12","21:00",0.0,23.0,87.3,1007.4,308.9,1.2,2.2,313.4,0.00,20.8,25.7
"21/07/12","22:00",0.0,22.4,89.1,1008.1,321.1,1.8,3.2,342.9,0.00,20.6,25.5
"21/07/12","23:00",0.0,22.0,89.8,1007.6,333.9,1.7,3.6,345.9,0.00,20.3,25.2
"21/07/12","24:00",0.0,21.5,90.5,1007.8,316.8,1.5,3.6,323.9,0.00,19.9,25.2
"21/07/13","01:00",0.0,20.8,91.5,1008.6,313.2,1.2,2.8,331.6,0.00,19.4,24.8
"21/07/13","02:00",0.0,20.5,92.4,1008.8,287.1,1.1,2.5,330.3,0.00,19.3,24.5
"21/07/13","03:00",0.0,20.2,93.1,1008.8,292.6,1.0,2.0,337.9,0.00,19.1,24.7
"21/07/13","04:00",0.0,20.0,93.7,1008.6,295.0,1.2,1.9,329.3,0.00,19.0,24.2
"21/07/13","05:00",0.0,19.8,94.3,1008.8,296.3,0.8,2.6,340.3,0.00,18.9,24.2
"21/07/13","06:00",0.0,20.6,94.6,1009.0,322.1,1.2,1.8,338.3,0.02,19.7,24.0
"21/07/13","07:00",0.0,23.9,93.5,1008.6,230.0,0.3,1.9,330.6,0.44,22.8,23.9
"21/07/13","08:00",0.0,25.0,90.2,1008.1,129.3,0.6,1.8,340.5,0.88,23.3,24.2
"21/07/13","09:00",0.0,27.0,76.0,1007.8,91.3,0.5,2.5,3.9,1.43,22.4,24.2
"21/07/13","10:00",0.0,27.9,72.7,1008.3,65.3,0.6,2.1,206.2,1.15,22.6,24.6
"21/07/13","11:00",0.0,30.7,66.2,1009.5,143.6,0.8,2.2,124.1,2.87,23.7,24.7
"21/07/13","12:00",0.0,31.5,63.7,1009.3,248.5,1.2,2.6,348.1,3.23,23.8,25.2
"21/07/13","13:00",0.0,30.8,62.7,1007.6,251.1,1.8,4.3,182.1,2.10,22.9,25.8
"21/07/13","14:00",0.0,31.2,62.8,1007.6,264.0,1.8,4.3,237.8,2.73,23.3,26.2
"21/07/13","15:00",0.0,32.8,58.4,1007.8,249.9,1.6,4.4,220.4,2.33,23.6,26.3
"21/07/13","16:00",0.0,27.7,75.0,1005.5,340.7,2.2,5.4,218.4,0.99,22.9,26.7
"21/07/13","17:00",4.6,24.9,84.7,1006.4,343.2,1.2,4.9,339.1,0.05,22.2,26.5
"21/07/13","18:00",0.0,24.2,88.2,1007.4,332.1,2.3,4.8,333.5,0.11,22.2,26.3
"21/07/13","19:00",0.0,25.0,87.1,1007.8,337.6,2.1,4.0,343.7,0.23,22.7,26.1
"21/07/13","20:00",0.0,24.4,88.2,1008.6,336.9,1.6,4.5,337.2,0.01,22.4,26.2
"21/07/13","21:00",0.0,24.1,89.9,1009.0,331.8,2.2,4.3,346.1,0.00,22.4,25.9
"21/07/13","22:00",0.0,23.8,90.7,1009.5,313.5,1.2,3.6,338.8,0.00,22.2,25.6
"21/07/13","23:00",0.0,23.8,91.3,1009.3,336.6,2.0,4.0,339.7,0.00,22.3,25.5
"21/07/13","24:00",0.0,23.3,92.0,1010.0,297.7,1.1,3.5,327.7,0.00,22.0,25.4
"21/07/14","01:00",0.0,23.0,92.7,1009.3,309.7,1.1,2.2,337.6,0.00,21.8,25.5
"21/07/14","02:00",0.0,22.6,93.1,1008.6,314.5,1.0,3.4,343.2,0.00,21.5,25.2
"21/07/14","03:00",0.0,22.8,93.7,1009.0,331.5,2.8,4.8,338.4,0.00,21.8,25.1